sat.trackr.live / text

‹ back to catalog

STARLINK-35222

NORAD 65677 · 2025-212B

PAYLOAD ACTIVE UNKNOWN

§ Identity

Operator
Country
US
Launch date
2025-09-21
Launch site
AFETR
Launch vehicle
Mass (kg)
RCS (m²)

Purposes: comms

External: N2YO · Heavens-Above · Gunter

§ Orbital elements

Epoch: 2026-05-24T23:20:07.730016Z

Period
94.11 min
Inclination
53.1608°
Eccentricity
0.0001087
Mean motion
15.30205535 rev/d
Perigee alt
474.5 km
Apogee alt
475.9 km
Semi-major
6,853.3 km
B*
7.3819e-4
RAAN
351.2871°
Arg perigee
85.3998°
Mean anomaly
274.7127°
Rev number
3,893

§ Raw data

STARLINK-352221 65677U 25212B   26144.97231169  .00021571  00000+0  73819-3 0  99942 65677  53.1608 351.2871 0001087  85.3998 274.7127 15.30205535 38933

JSON: /api/v1/satellites/65677 · /tle

For live sub-satellite position, see the globe view (requires WebGL).

§ Visibility from observer

Set your observer location to see the next 7 days of passes ≥ 10°. The values pass through the URL so the page stays shareable.

No JS? Fill the form by hand. The geolocation button needs JavaScript.